Regional Weather Roundup
Issued by NWS

Home | Current Version | Previous Version | Graphics & Text | Print | Product List | Glossary On
Versions: 1 2 3 4 5 6 7 8 9 10 11 12 13 14 15 16 17 18 19 20 21 22 23 24 25 26 27 28 29 30 31 32 33 34 35 36 37 38 39 40 41 42 43 44 45 46 47 48 49 50
000
ASUS43 KMKX 271500
RWRWI

WISCONSIN REGIONAL WEATHER ROUNDUP
NATIONAL WEATHER SERVICE MILWAUKEE/SULLIVAN WI
1000 AM CDT WED AUG 27 2014

NOTE: "FAIR" INDICATES FEW OR NO CLOUDS BELOW 12,000 FEET WITH NO
SIGNIFICANT WEATHER AND/OR OBSTRUCTIONS TO VISIBILITY.

WIZ001-002-006>008-014>016-023>028-271600-
NORTHWEST WISCONSIN

CITY           SKY/WX    TMP DP  RH WIND       PRES   REMARKS
SUPERIOR ARPT  SUNNY     60  54  82 CALM      30.22S
ASHLAND        MOSUNNY   63  51  65 NE3       30.23R
HAYWARD        SUNNY     61  50  67 NE5       30.23R
SIREN          SUNNY     62  51  66 CALM      30.23R
RICE LAKE      SUNNY     63  50  63 NE7       30.24S
LADYSMITH      SUNNY     62  51  66 N7        30.24S
EAU CLAIRE     NOT AVBL
MENOMONIE      MOSUNNY   65  55  69 NE5       30.22R
NEW RICHMOND   SUNNY     64  52  64 E7        30.23R
OSCEOLA        SUNNY     64  53  68 E6        30.24F
$$

WIZ003>005-009-010-017-018-271600-
NORTH CENTRAL WISCONSIN

CITY           SKY/WX    TMP DP  RH WIND       PRES   REMARKS
WOODRUFF       MOSUNNY   59  51  74 N5        30.22R
RHINELANDER    CLOUDY    60  50  69 CALM      30.23R
EAGLE RIVER    PTSUNNY   60  49  67 NE3       30.21R
LAND O LAKES   MOSUNNY   59  50  70 NW6       30.22R
PHILLIPS       MOSUNNY   58  51  77 N6        30.22R
TOMAHAWK       PTSUNNY   60  52  75 W3        30.23R
MEDFORD        MOSUNNY   61  53  74 NW7       30.22F
MERRILL        SUNNY     62  55  80 CALM      30.22S
$$

WIZ029-030-035-036-043>047-271600-
CENTRAL WISCONSIN

CITY           SKY/WX    TMP DP  RH WIND       PRES   REMARKS
WAUSAU         SUNNY     64  53  67 MISG      30.19F
MOSINEE        MOSUNNY   64  55  72 CALM      30.22F
MARSHFIELD     MOSUNNY   68  54  60 NW5       30.21S
STEVENS POINT  MOSUNNY   63  52  67 CALM      30.21F
WAUPACA        SUNNY     69  56  62 SE3       30.21S
WAUTOMA        NOT AVBL
WISC RAPIDS    SUNNY     68  54  60 VRB3      30.22R
CAMP DOUGLAS   NOT AVBL
$$

WIZ011>013-019>022-031-037>040-048>050-271600-
NORTHEAST WISCONSIN

CITY           SKY/WX    TMP DP  RH WIND       PRES   REMARKS
ANTIGO         PTSUNNY   62  54  76 SW6       30.22R
STURGEON BAY   PTSUNNY   64  52  63 S3        30.21R
GREEN BAY      MOSUNNY   67  55  65 CALM      30.19S
MANITOWOC      NOT AVBL
APPLETON       MOSUNNY   66  50  55 CALM      30.21R
CLINTONVILLE   SUNNY     64  50  59 CALM      30.21R
OSHKOSH        MOSUNNY   68  59  73 NE7       30.20R
$$

WIZ032>034-041-042-053>061-271600-
SOUTHWEST WISCONSIN

CITY           SKY/WX    TMP DP  RH WIND       PRES   REMARKS
LA CROSSE      MOSUNNY   72  56  57 E5        30.20R
SPARTA         SUNNY     67  55  66 CALM      30.22R
VIROQUA        FAIR      67  56  67 NE5       30.21S
BOSCOBEL       MOSUNNY   71  58  63 CALM      30.20R
PRAIRIE DU CHI MOSUNNY   67  57  70 CALM      30.19R
PLATTEVILLE    FAIR      70  58  66 E6        30.19R
$$

WIZ056-057-062-063-064-067-068-271600-
SOUTH CENTRAL WISCONSIN

CITY           SKY/WX    TMP DP  RH WIND       PRES   REMARKS
BARABOO/DELLS  SUNNY     67  56  69 NE3       30.19F
LONE ROCK      NOT AVBL
WATERTOWN      MOSUNNY   68  61  78 NE5       30.16F
MADISON        PTSUNNY   69  59  70 CALM      30.18S
MIDDLETON      FAIR      68  61  78 NE3       30.18F
MONROE         MOSUNNY   68  59  73 CALM      30.18R
JANESVILLE     MOSUNNY   72  57  60 VRB6      30.15S
$$

WIZ051-052-058>065-066-070>072-271600-
SOUTHEAST WISCONSIN

CITY           SKY/WX    TMP DP  RH WIND       PRES   REMARKS
MILWAUKEE      PTSUNNY   69  63  81 NE9       30.16S
WAUKESHA       MOSUNNY   66  59  77 NE3       30.18S
MILWAUKEE/TIMM MOSUNNY   70  59  68 N6        30.18R
RACINE         MOSUNNY   70  63  78 N8        30.18R
BURLINGTON     SUNNY     68  59  71 CALM      30.17R
KENOSHA        SUNNY     72  63  73 VRB3      30.16S
FOND DU LAC    MOSUNNY   69  59  70 NE5       30.20S
SHEBOYGAN      MOSUNNY   68  58  70 E8        30.20R
WEST BEND      PTSUNNY   64  57  77 NE7       30.19R
JUNEAU         MOSUNNY   65  59  80 N5        30.19F
$$

LSZ147-162-271600-
LAKE SUPERIOR

STATION/POSITION TIME  TEMP    WIND        PRES    WAVE
                       AIR SEA DIR/SP/G            HT/PER
                 (UTC) (F)     (DEG/KT/KT) (MB)    (FT/S)
W MID LAKE BUOY  1350   55 54  280/  4/  4 1022.4S   0
DEVILS ISLAND    1400   57     330/  5/  5 1023.0S
PORT WING        1400   59     340/  6/  6 1023.0S
SAXON HARBOR     1400   60     340/  6/  8 1023.0S
$$

LMZ867-665-643>646-271600-
LAKE MICHIGAN

STATION/POSITION TIME  TEMP    WIND        PRES    WAVE
                       AIR SEA DIR/SP/G            HT/PER
                 (UTC) (F)     (DEG/KT/KT) (MB)    (FT/S)
N MID LAKE BUOY  1350   61 65  340/  8/ 10 1021.8R   1
NORTHPORT PIER   1400   62     350/  4/  6 1022.0R
SISTER BAY       1411   67     350/  6/  7   N/A
ALGOMA LAKESHORE 1353             CALM       N/A
KEWAUNEE LAKESHO 1400   66     110/  1/  3 1021.2R
SHEBOYGAN LAKESH 1400   65 66   60/  7/  9 1022.0R
ATWATER BUOY     1400   67      10/  6/  8 1022.2S
MILWAUKEE LAKESH 1400   66      30/  5/  7   N/A
S MID LAKE BUOY  1350   68 69   90/  4/  6 1021.0R   0
KENOSHA   LAKESH 1400   68      30/  6/  9 1020.7S
$$

TC  - TEMPERATURE IN CELSIUS
VSB - VISIBILITY IN STATUTE MILES
WCI - WIND CHILL INDEX
HX  - HEAT INDEX



USA.gov is the U.S. government's official web portal to all federal, state and local government web resources and services.